RH
10 12 13 13 13 12 11 10 9 9 9 9 9 9 11 13 14 14 15 16 16 18 21 24 25 24 21 18 16 20 27 26 25
12 13 13 12 11 10 9 8 7 6 6 6 6 5 6 7 8 8 8 9 9 9 10 13 19 26 29 29 29 26 20 20 25
12 12 12 11 9 8 7 6 6 6 7 8 9 9 9 9 9 9 9 9 9 9 9 10 10 10 10 12 18 24 28 29 24
13 12 12 10 8 6 6 6 6 6 7 8 8 9 9 9 8 8 8 8 8 8 8 9 9 10 10 10 11 11 13 23 33
14 12 10 8 7 6 6 6 6 7 7 7 7 7 8 8 8 8 7 7 8 7 7 7 7 8 9 10 11 11 12 12 14
14 11 9 7 6 6 5 6 6 6 6 7 7 7 7 7 7 8 7 8 8 8 8 8 9 9 10 12 13 21 39 28 19
13 10 8 6 6 6 6 6 6 6 6 6 6 6 6 6 7 7 7 7 9 10 12 12 14 17 19 23 32 40 34 28 22
11 8 6 6 6 6 6 7 6 6 6 6 6 6 6 7 7 8 10 11 13 15 17 18 18 18 23 27 26 26 32 37 35
10 7 6 6 6 6 7 6 6 6 6 6 6 6 6 8 11 14 14 17 17 17 17 16 16 16 16 16 21 26 31 38 41
9 6 5 5 6 7 6 6 5 6 6 6 6 7 11 13 14 16 15 14 12 11 12 12 10 9 8 8 8 15 22 32 41
8 6 6 5 6 7 7 5 5 5 10 9 10 12 15 16 16 13 10 9 8 7 6 6 7 9 8 5 5 6 6 10 15
7 7 6 8 8 7 6 6 6 7 9 14 15 17 18 16 11 9 8 5 5 6 7 10 6 3 5 5 5 6 7 7 8
7 8 9 8 6 6 6 6 8 11 16 17 19 19 15 11 11 6 5 8 8 7 4 3 3 5 5 6 6 6 7 8 8
8 8 7 7 7 8 10 14 16 18 18 19 18 14 11 10 6 9 9 5 4 4 3 4 5 6 6 6 7 8 9 10 11
7 7 7 11 17 19 18 20 21 21 20 20 16 11 11 8 10 4 4 3 3 4 5 5 6 8 7 8 10 11 11 12 12
8 9 12 18 24 20 20 15 17 20 22 17 12 11 11 10 4 4 3 5 7 6 6 6 8 9 11 10 10 10 12 12 10
11 16 21 24 22 18 14 14 21 24 19 14 12 16 14 5 4 4 8 9 9 8 8 9 11 11 11 10 10 13 12 11 13
21 23 22 18 14 12 10 10 18 21 20 19 20 19 8 4 5 7 12 12 10 10 10 12 11 10 10 9 15 14 14 23 28
13 11 12 11 10 11 10 11 22 32 32 24 20 12 5 5 8 12 13 12 9 11 11 12 11 10 9 12 16 13 22 30 46
8 8 10 11 7 7 18 33 46 35 21 17 13 10 11 14 16 14 14 13 11 12 12 11 10 10 10 18 15 16 25 40 70
Wind_Speed
14 14 15 16 17 18 19 19 20 21 21 21 22 22 21 20 19 20 21 21 21 20 21 21 20 20 20 20 20 19 20 23 25
15 16 17 18 19 20 21 22 22 22 21 21 21 21 20 19 18 18 18 18 18 19 19 20 22 24 24 24 23 23 21 21 21
18 19 20 22 22 23 24 24 24 23 22 21 21 21 21 22 22 23 23 23 23 24 24 24 24 23 23 23 25 26 26 25 23
20 22 23 24 24 24 25 26 26 26 25 24 24 24 25 25 26 27 28 27 27 28 29 29 30 30 30 29 28 26 26 26 26
23 24 25 25 26 27 27 27 28 28 28 27 27 27 27 28 30 31 32 32 33 34 34 35 35 36 36 35 35 34 31 29 28
25 27 27 26 27 27 28 29 30 30 30 29 31 32 32 33 33 35 36 36 38 38 39 40 40 40 39 39 38 37 35 34 32
28 28 28 28 29 29 30 31 32 33 33 33 32 34 35 35 37 38 39 41 41 43 42 42 42 41 41 40 39 38 38 38 36
30 28 28 29 29 32 32 34 35 36 36 36 37 37 38 39 38 39 39 41 42 42 42 42 41 42 42 41 40 40 40 40 39
30 29 29 30 32 34 36 37 38 39 39 39 40 40 41 41 41 41 40 39 41 41 41 41 41 40 41 40 39 38 39 39 38
31 32 33 34 36 38 41 42 43 43 43 42 43 43 43 42 40 39 39 40 42 42 42 42 41 39 38 36 32 32 32 33 34
33 34 36 38 40 43 45 46 46 45 44 45 44 43 41 39 39 40 41 43 44 46 42 39 32 29 28 27 26 26 28 30 31
35 37 40 43 46 48 49 50 50 48 45 43 41 39 38 38 39 42 45 44 40 34 29 25 25 26 25 28 28 31 33 35 38
38 41 43 46 49 52 55 55 54 48 43 41 38 37 39 41 44 41 33 26 22 23 25 26 26 26 28 31 34 38 41 43 45
43 45 48 50 54 56 56 54 49 43 40 39 39 39 39 42 35 26 23 23 26 28 29 25 27 30 33 36 38 42 45 48 51
47 50 53 55 56 52 46 43 42 40 41 41 38 37 38 30 25 24 26 27 29 28 25 27 31 33 35 35 39 45 49 49 51
53 56 58 59 52 47 48 46 45 44 41 39 37 34 28 26 26 26 27 27 26 24 27 30 30 30 31 37 44 47 46 50 54
58 61 58 50 48 49 49 46 42 41 40 34 30 28 28 27 26 26 25 23 24 25 25 26 26 31 35 41 47 43 46 51 55
58 53 52 53 51 51 49 44 39 34 30 29 28 29 28 26 25 25 24 23 25 24 24 26 29 33 37 43 43 41 47 48 46
58 58 54 54 51 47 43 38 33 28 27 28 28 27 27 25 24 23 24 25 27 26 28 30 32 34 38 42 39 41 42 42 40
57 52 46 44 43 36 29 28 27 26 26 25 25 24 22 20 22 24 25 28 29 28 29 32 33 34 36 38 35 39 39 34 32
Wind_Direction
322 320 319 318 317 317 315 314 312 310 308 307 305 303 301 297 293 291 289 286 285 282 281 281 281 282 280 281 280 280 281 277 276
317 317 318 317 316 314 313 312 310 307 303 302 300 299 299 299 300 302 301 301 300 299 295 290 285 282 282 281 280 278 275 275 276
317 316 315 314 314 314 312 310 307 302 298 297 298 298 296 297 298 298 297 296 294 293 292 291 289 288 286 283 282 281 281 279 276
312 310 310 310 310 310 309 307 305 300 296 294 292 292 291 292 292 294 294 293 291 290 289 288 288 287 286 286 284 281 281 280 278
307 306 304 305 305 306 304 303 302 300 298 295 293 290 288 286 287 288 288 289 289 288 287 286 285 285 285 285 283 282 281 278 277
302 301 301 300 301 302 304 305 301 299 297 295 292 290 289 287 287 287 288 288 288 287 287 288 287 287 285 284 283 281 282 279 278
297 297 297 299 301 302 303 303 304 302 300 296 293 292 290 288 287 286 287 287 290 291 291 290 289 288 287 285 284 281 279 278 277
296 296 297 298 300 301 302 302 300 298 298 295 294 293 291 291 290 289 289 289 289 288 289 288 288 287 286 285 284 282 281 279 277
294 294 295 297 299 299 301 300 299 296 293 293 291 290 290 290 290 290 289 289 289 290 290 289 288 287 286 285 283 280 278 278 276
293 294 295 297 298 298 298 298 297 296 292 290 289 290 291 291 290 290 290 291 291 291 290 288 287 285 284 282 280 279 279 277 275
293 293 294 295 296 296 297 298 297 297 295 291 291 292 291 290 290 291 292 293 291 289 287 287 283 277 276 276 278 281 284 286 285
291 292 293 295 296 296 296 297 298 299 297 294 291 291 290 290 291 293 293 291 288 287 283 281 279 277 276 276 278 283 285 285 286
290 291 292 294 294 295 296 298 300 299 295 293 291 290 290 293 296 295 291 288 283 280 280 279 277 274 280 283 285 286 286 286 282
289 290 292 294 296 299 300 299 297 294 291 289 290 292 294 298 294 287 281 279 279 281 279 276 277 279 283 284 287 288 287 284 282
290 293 295 301 302 299 299 300 297 293 291 291 292 293 296 289 279 279 280 281 279 277 272 279 283 282 284 289 293 293 289 284 282
294 299 300 301 300 298 300 298 295 293 290 290 291 293 288 277 277 280 279 278 273 272 277 282 283 289 294 299 300 295 290 290 287
297 298 299 299 298 297 295 295 293 291 290 288 288 284 278 275 276 278 278 273 274 276 280 281 286 292 298 306 308 301 302 298 295
300 299 297 296 294 292 294 292 288 286 283 281 280 279 273 271 274 278 277 276 277 281 278 282 294 301 305 311 311 310 310 309 301
299 298 296 294 295 294 293 288 282 274 273 277 281 279 276 274 275 276 278 281 285 286 286 294 304 309 312 317 315 319 318 318 311
298 299 299 297 297 295 289 279 272 271 276 283 282 278 274 277 281 282 281 284 287 293 294 300 307 314 320 324 321 327 331 328 327